Find Starlink 4129

NORAD ID: 53251 Int'l Des: 2022-086 Owner: SPXS Country: US Constellation: starlink operational
LEOCIRCULAR

当前视图

正在加载3D地球...

About Starlink 4129

Starlink 4129 (NORAD 53251) is a starlink constellation satellite (v1.5) launched Jul 24, 2022 by SPXS of US. It operates in LEO, CIRCULAR orbit with a mass of 297.00 kg.

关于 Starlink 4129

正在加载描述...

即将过境

Passes for default location (London). Set your location on the main map for personalized predictions.

高度历史

Loading altitude history...

两行轨道根数

1 53251U 22086K 26168.06237520 -.00000114 00000-0 10948-4 0 9995
2 53251 53.1611 107.9248 0001315 85.7691 274.3451 15.08830331216065
Epoch: Jun 17, 2026 • Age: 32 hours

当前状态

高度 541.5 km
速度 7.59 km/s
星下点 -4.71°S, 52.83°E
发射日期 Jul 24, 2022
运行时间 3.8 years
类型 internet

技术详情

分类 Payload
质量 297.00 kg
干质量 275.00 kg
总质量 297.00 kg
长度 0.20 m
直径 2.80 m
跨度 9.00 m
形状 Box + pan
制造商 SPXS
平台类型 Starlink
阶段状态 In Orbit
所有者/国家 SPXS/US

Most Searched